[[{"header":{"parameterUnit":"m.s-1","parameterCategory":1,"la1":30.2991,"la2":30.254,"lo1":-89.0895,"lo2":-89.0444,"dy":0.0017,"dx":0.0017,"nx":28,"ny":28,"refTime":"2024-10-18T21:00:00:Z","depth":0,"parameterNumber":2,"parameterNumberName":"U-component_of_WINDS"},"data":[0,0,0,0,0,0,0,0,0,0,0,0,0,0,0,0,0,0,0,0,0,0,0,0,0,0,0,0,0,0,0,0,0,0,0,0,0,0,0,0,0,0,0,0,0,0,0,0,0,0,0,0,0,0,0,0,0,0,-4.8512,-4.8512,0,-4.8552,-4.8553,-4.8553,-4.8405,-4.84,-4.8396,-4.8392,-4.8436,-4.8442,-4.8447,0,0,0,0,0,0,0,0,0,0,0,0,0,-4.8309,-4.8313,-4.8512,-4.8512,-4.8513,-4.8552,-4.8553,-4.8553,-4.8405,-4.84,-4.8395,-4.839,-4.8435,-4.8441,-4.8447,0,0,0,0,0,0,0,0,0,0,0,0,0,-4.8378,-4.8315,-4.8512,-4.8444,-4.8438,-4.8552,-4.8553,-4.8554,-4.8407,-4.84,-4.8393,-4.8387,-4.8433,-4.844,-4.8448,-4.8631,0,0,-4.8473,-4.8476,0,0,0,0,0,0,0,0,-4.8374,-4.8386,-4.8453,-4.8449,-4.8442,-4.8466,-4.8498,-4.858,-4.8408,-4.8419,-4.8392,-4.8384,-4.8452,-4.8458,-4.848,-4.8633,-4.8635,-4.8473,-4.8478,-4.8482,-4.8484,0,0,0,0,0,0,0,-4.837,-4.8383,-4.8528,-4.8454,-4.8448,-4.8412,-4.8414,-4.8512,-4.8472,-4.8417,-4.8406,-4.8413,-4.8448,-4.8473,-4.848,-4.8636,-4.8473,-4.848,-4.8485,-4.8488,-4.8942,-4.8949,0,0,0,0,0,0,-4.8374,-4.838,-4.8526,-4.8529,-4.8391,-4.8421,-4.8424,-4.8466,-4.8471,-4.8465,-4.8419,-4.8406,-4.8463,-4.8471,-4.8481,-4.8697,-4.8482,-4.8489,-4.8494,-4.8935,-4.8944,-4.8952,0,0,0,0,0,0,-4.837,-4.8388,-4.8525,-4.8452,-4.8466,-4.8432,-4.848,-4.847,-4.8495,-4.8472,-4.8464,-4.8452,-4.8458,-4.847,-4.8595,-4.8697,-4.8493,-4.85,-4.8926,-4.8938,-4.8948,-4.913,0,0,0,0,0,0,-4.8365,-4.8388,-4.8456,-4.8454,-4.8471,-4.8638,-4.8486,-4.8476,-4.8509,-4.8493,-4.8501,-4.8496,-4.8453,-4.8584,-4.8603,-4.8704,-4.8506,-4.8917,-4.8931,-4.8944,-4.9115,-4.9146,-4.9173,0,0,0,0,0,-4.8358,-4.8506,-4.846,-4.8479,-4.8556,-4.8644,-4.8653,-4.86,-4.8517,-4.8587,-4.8572,-4.8496,-4.8682,-4.8598,-4.8618,-4.8723,-4.8911,-4.8927,-4.8943,-4.9102,-4.914,-4.9172,0,0,0,0,0,0,-4.8522,-4.8505,-4.8454,-4.8605,-4.8627,-4.8618,-4.8704,-4.8642,-4.8688,-4.8671,-4.8604,-4.8608,-4.8745,-4.8746,-4.8653,-4.8901,-4.8782,-4.8803,-4.8896,-4.8932,-4.896,-4.8958,-4.8513,0,0,0,0,0,-4.8575,-4.8647,-4.8629,-4.8765,-4.8778,-4.874,-4.8776,-4.8733,-4.8753,-4.8762,-4.8756,-4.878,-4.8844,-4.8887,-4.8944,-4.9114,-4.9115,-4.9196,-4.9225,-4.9248,-4.9269,-4.936,-4.9397,-4.9005,-4.9005,-4.9005,0,0,-4.8687,-4.8687,-4.8736,-4.8798,-4.8809,-4.8887,-4.8748,-4.8836,-4.8893,-4.8776,-4.8894,-4.8891,-4.8912,-4.9061,-4.9126,-4.9066,-4.9376,-4.9269,-4.9288,-4.9295,-4.9381,-4.9418,-4.9451,-4.9016,-4.9014,-4.9013,0,0,-4.8931,-4.8937,-4.9052,-4.9066,-4.9086,-4.9059,-4.9087,-4.9088,-4.9081,-4.9198,-4.9112,-4.9179,-4.929,-4.931,-4.9334,-4.9586,-4.9519,-4.9607,-4.9758,-4.9848,-4.9879,-4.9906,-4.9999,-5.0033,-4.9626,-4.9627,-4.9627,0,-4.9068,-4.9181,-4.9119,-4.9213,-4.9243,-4.9139,-4.9256,-4.9273,-4.9311,-4.9335,-4.9266,-4.9404,-4.9411,-4.9564,-4.9625,-4.9648,-4.9679,-4.9607,-4.9879,-4.9906,-4.9931,-5.0018,-5.0053,-4.9637,-4.9636,-4.9635,-4.9634,0,-4.9349,-4.9429,-4.9519,-4.9558,-4.9598,-4.9703,-4.9659,-4.9707,-4.966,-4.9642,-4.9763,-4.9768,-4.9825,-4.9858,-4.9813,-5.0005,-4.9967,-4.9891,-4.977,-4.998,-5.0061,-5.0094,-4.9653,-4.9649,-4.9646,-4.9643,0,0,-4.97,-4.9702,-4.9737,-4.9754,-4.9767,-4.9828,-4.9929,-4.9984,-5.0028,-5.0057,-5.0141,-5.0237,-5.0167,-5.0195,-5.0151,-5.023,-5.0433,-5.0143,-5.0143,-5.02,-5.0647,-5.0707,-5.0747,-5.0387,-5.0393,-5.0398,-5.0646,0,-4.9941,-5.0113,-5.0061,-5.0234,-5.0308,-5.021,-5.0298,-5.0317,-5.0302,-5.0363,-5.0346,-5.0417,-5.0316,-5.0333,-5.0406,-5.0393,-5.0522,-5.0374,-5.0467,-5.0471,-5.0468,-5.0789,-5.0852,-5.1087,-5.0677,-5.0682,-5.0686,0,-5.0247,-5.0288,-5.0469,-5.0472,-5.05,-5.0581,-5.0628,-5.0686,-5.0706,-5.069,-5.0722,-5.0662,-5.0763,-5.064,-5.0778,-5.0679,-5.0713,-5.0713,-5.072,-5.0729,-5.0594,-5.0809,-5.116,-5.1196,-5.0735,-5.0731,-5.0728,0,-5.0488,-5.0588,-5.071,-5.0727,-5.0732,-5.0791,-5.0796,-5.0808,-5.0846,-5.0887,-5.091,-5.0963,-5.0993,-5.1036,-5.0993,-5.0907,-5.1139,-5.1012,-5.1131,-5.1132,-5.1186,-5.1184,-5.155,-5.1205,-5.1204,-5.1203,-5.1203,0,-5.0765,-5.088,-5.0818,-5.0894,-5.1021,-5.0959,-5.1087,-5.108,-5.1093,-5.1166,-5.1084,-5.1155,-5.1092,-5.1158,-5.1125,-5.1247,-5.126,-5.1251,-5.1242,-5.1261,-5.1262,-5.1285,-5.1268,-5.1212,-5.121,-5.1209,-5.1207,0,-5.1057,-5.1019,-5.1146,-5.114,-5.1141,-5.1236,-5.1231,-5.1301,-5.1279,-5.1374,-5.1392,-5.136,-5.1433,-5.1394,-5.1469,-5.1447,-5.1605,-5.1572,-5.1599,-5.1591,-5.1713,-5.1704,-5.2109,-5.216,-5.1779,-5.1783,-5.1786,0,-5.1238,-5.1324,-5.1327,-5.137,-5.1381,-5.1451,-5.1488,-5.1431,-5.1473,-5.1502,-5.157,-5.1636,-5.1686,-5.1807,-5.1791,-5.1849,-5.1819,-5.1957,-5.1827,-5.1844,-5.1824,-5.1821,-5.1831,-5.1984,-5.1989,-5.1992,-5.1995,0,-5.1564,-5.1541,-5.1597,-5.1648,-5.1695,-5.1732,-5.1762,-5.1803,-5.1746,-5.1798,-5.1871,-5.191,-5.1987,-5.2055,-5.2105,-5.211,-5.2046,-5.2035,-5.2067,-5.2088,-5.2101,-5.2099,-5.1673,-5.2027,-5.2024,-5.2022,-5.202,-5.2019,-5.1807,-5.188,-5.1894,-5.196,-5.1977,-5.2008,-5.2074,-5.206,-5.212,-5.2179,-5.2141,-5.2228,-5.2246,-5.2306,-5.2321,-5.239,-5.2335,-5.2379,-5.2391,-5.2404,-5.2421,-5.2088,-5.2398,-5.2397,-5.2396,-5.2396,-5.2395,0,-5.2131,-5.2135,-5.2197,-5.2242,-5.2294,-5.2225,-5.2256,-5.2305,-5.2383,-5.2404,-5.2455,-5.2541,-5.2606,-5.2594,-5.2654,-5.2711,-5.2683,-5.2729,-5.2726,-5.2729,-5.2466,-5.2434,-5.2751,-5.2751,-5.2751,-5.2751,-5.2751,-5.2751,-5.2307,-5.2427,-5.2406,-5.2535,-5.2538,-5.2623,-5.2646,-5.2675,-5.2692,-5.2791,-5.2844,-5.2836,-5.2845,-5.2905,-5.2962,-5.2957,-5.2984,-5.3042,-5.3027,-5.2782,-5.2747,-5.2714,-5.2684,-5.3048,-5.3048,-5.3284,-5.3287,-5.3288]},{"header":{"parameterUnit":"m.s-1","parameterCategory":1,"la1":30.2991,"la2":30.254,"lo1":-89.0895,"lo2":-89.0444,"dy":0.0017,"dx":0.0017,"nx":28,"ny":28,"refTime":"2024-10-18T21:00:00:Z","depth":0,"parameterNumber":3,"parameterNumberName":"V-component_of_WINDS"},"data":[0,0,0,0,0,0,0,0,0,0,0,0,0,0,0,0,0,0,0,0,0,0,0,0,0,0,0,0,0,0,0,0,0,0,0,0,0,0,0,0,0,0,0,0,0,0,0,0,0,0,0,0,0,0,0,0,0,0,-3.0681,-3.0681,0,-3.0684,-3.0684,-3.0684,-3.0636,-3.0634,-3.0633,-3.0632,-3.0635,-3.0637,-3.0638,0,0,0,0,0,0,0,0,0,0,0,0,0,-3.0633,-3.0635,-3.0681,-3.0681,-3.0681,-3.0684,-3.0684,-3.0684,-3.0636,-3.0634,-3.0633,-3.0631,-3.0635,-3.0637,-3.0638,0,0,0,0,0,0,0,0,0,0,0,0,0,-3.0647,-3.0635,-3.0681,-3.0657,-3.0655,-3.0684,-3.0684,-3.0684,-3.0636,-3.0634,-3.0632,-3.0631,-3.0635,-3.0636,-3.0638,-3.0689,0,0,-3.0644,-3.0645,0,0,0,0,0,0,0,0,-3.0646,-3.0649,-3.0661,-3.0659,-3.0657,-3.0657,-3.0668,-3.0686,-3.0637,-3.0644,-3.0632,-3.063,-3.0644,-3.0645,-3.065,-3.069,-3.069,-3.0645,-3.0646,-3.0647,-3.0647,0,0,0,0,0,0,0,-3.0645,-3.0648,-3.0682,-3.0661,-3.0659,-3.0646,-3.0646,-3.0671,-3.0655,-3.0643,-3.0639,-3.064,-3.0643,-3.0648,-3.065,-3.069,-3.0644,-3.0646,-3.0647,-3.0648,-3.0769,-3.0771,0,0,0,0,0,0,-3.0648,-3.0648,-3.0682,-3.0682,-3.0647,-3.0649,-3.0649,-3.0659,-3.0654,-3.0652,-3.0642,-3.0638,-3.0646,-3.0648,-3.065,-3.0708,-3.0647,-3.0648,-3.0649,-3.0767,-3.077,-3.0772,0,0,0,0,0,0,-3.0647,-3.0651,-3.0682,-3.0664,-3.0667,-3.0652,-3.0664,-3.066,-3.0666,-3.0654,-3.0651,-3.0651,-3.0645,-3.0647,-3.0679,-3.0708,-3.0649,-3.0651,-3.0765,-3.0768,-3.0771,-3.0826,0,0,0,0,0,0,-3.0646,-3.0651,-3.0671,-3.0665,-3.0668,-3.0712,-3.0666,-3.0662,-3.0669,-3.0664,-3.0661,-3.0659,-3.0643,-3.0677,-3.0681,-3.0709,-3.0653,-3.0762,-3.0766,-3.077,-3.0822,-3.0831,-3.0838,0,0,0,0,0,-3.0644,-3.0687,-3.0672,-3.0676,-3.0692,-3.0713,-3.0715,-3.0696,-3.0672,-3.0691,-3.0683,-3.0659,-3.0704,-3.0681,-3.0685,-3.0714,-3.076,-3.0765,-3.0769,-3.0818,-3.0829,-3.0838,0,0,0,0,0,0,-3.0697,-3.0686,-3.0669,-3.0711,-3.0713,-3.0705,-3.0729,-3.0709,-3.0719,-3.0714,-3.069,-3.0689,-3.0725,-3.0723,-3.0697,-3.0762,-3.0728,-3.0733,-3.0763,-3.0773,-3.0781,-3.0781,-3.0654,0,0,0,0,0,-3.0714,-3.0732,-3.0721,-3.0759,-3.0761,-3.0745,-3.0753,-3.0738,-3.074,-3.0741,-3.0735,-3.0738,-3.0752,-3.0763,-3.0775,-3.0821,-3.0819,-3.0843,-3.0851,-3.0858,-3.0864,-3.0886,-3.0896,-3.0787,-3.0787,-3.0787,0,0,-3.0748,-3.0744,-3.0757,-3.0769,-3.0769,-3.0788,-3.0746,-3.0768,-3.0782,-3.0744,-3.0774,-3.077,-3.0771,-3.081,-3.0827,-3.0809,-3.0893,-3.0864,-3.087,-3.0871,-3.0892,-3.0902,-3.0911,-3.079,-3.0789,-3.0789,0,0,-3.082,-3.0819,-3.085,-3.0851,-3.0851,-3.084,-3.0847,-3.0842,-3.0837,-3.0867,-3.0839,-3.0854,-3.088,-3.0882,-3.0886,-3.0957,-3.0935,-3.0962,-3.1005,-3.1028,-3.1036,-3.1044,-3.1068,-3.1078,-3.0967,-3.0967,-3.0967,0,-3.0863,-3.0891,-3.0869,-3.0892,-3.0898,-3.0864,-3.0894,-3.0896,-3.0901,-3.0906,-3.0885,-3.0916,-3.0915,-3.0953,-3.097,-3.0975,-3.0982,-3.0962,-3.1037,-3.1044,-3.1051,-3.1074,-3.1083,-3.097,-3.097,-3.097,-3.0969,0,-3.0943,-3.0962,-3.0987,-3.0991,-3.1,-3.1027,-3.1009,-3.102,-3.1004,-3.0994,-3.1024,-3.1021,-3.1032,-3.104,-3.1025,-3.1075,-3.1064,-3.1041,-3.1005,-3.1065,-3.1086,-3.1095,-3.0975,-3.0974,-3.0973,-3.0972,0,0,-3.105,-3.104,-3.105,-3.1051,-3.1048,-3.1062,-3.1087,-3.1097,-3.1107,-3.1111,-3.1131,-3.1152,-3.113,-3.1135,-3.112,-3.1139,-3.1195,-3.1113,-3.1113,-3.1128,-3.1249,-3.1267,-3.1277,-3.118,-3.1181,-3.1183,-3.1249,0,-3.112,-3.1162,-3.1142,-3.1186,-3.1203,-3.1169,-3.1191,-3.1191,-3.1183,-3.1196,-3.1187,-3.1202,-3.1172,-3.1175,-3.1193,-3.1184,-3.1218,-3.1179,-3.1198,-3.1199,-3.1199,-3.1288,-3.1307,-3.137,-3.1257,-3.1259,-3.126,0,-3.1207,-3.1213,-3.1259,-3.1251,-3.1257,-3.1277,-3.1284,-3.1297,-3.1296,-3.1288,-3.1293,-3.1273,-3.1296,-3.1261,-3.1292,-3.1266,-3.1272,-3.1269,-3.1271,-3.1272,-3.1233,-3.1292,-3.139,-3.1399,-3.1273,-3.1272,-3.1271,0,-3.128,-3.13,-3.1329,-3.1331,-3.1323,-3.1337,-3.1334,-3.1332,-3.1338,-3.1344,-3.1348,-3.1357,-3.1362,-3.1369,-3.1351,-3.1327,-3.1385,-3.1349,-3.1379,-3.138,-3.1393,-3.1393,-3.1494,-3.1398,-3.1398,-3.1398,-3.1397,0,-3.1359,-3.1389,-3.1361,-3.138,-3.1411,-3.1387,-3.1418,-3.1412,-3.141,-3.1426,-3.1398,-3.1413,-3.1389,-3.1402,-3.1389,-3.1416,-3.1419,-3.1413,-3.1409,-3.1416,-3.1417,-3.142,-3.1415,-3.14,-3.14,-3.1399,-3.1399,0,-3.1446,-3.1429,-3.1459,-3.1448,-3.1446,-3.1469,-3.146,-3.1476,-3.1465,-3.1486,-3.1489,-3.1472,-3.1486,-3.1469,-3.1482,-3.1472,-3.151,-3.15,-3.151,-3.1507,-3.1539,-3.1536,-3.1645,-3.1658,-3.1555,-3.1556,-3.1556,0,-3.1498,-3.152,-3.151,-3.1519,-3.1517,-3.1531,-3.1538,-3.1515,-3.1522,-3.1522,-3.1538,-3.1549,-3.1557,-3.1581,-3.157,-3.1579,-3.1569,-3.1606,-3.157,-3.1575,-3.1569,-3.1568,-3.1569,-3.1614,-3.1615,-3.1616,-3.1617,0,-3.1592,-3.1582,-3.1592,-3.1599,-3.1606,-3.1611,-3.1613,-3.1622,-3.1597,-3.1607,-3.1621,-3.1627,-3.1639,-3.165,-3.1656,-3.1653,-3.1631,-3.1628,-3.1636,-3.1643,-3.1648,-3.1645,-3.153,-3.1626,-3.1625,-3.1624,-3.1624,-3.1624,-3.1663,-3.168,-3.1675,-3.1687,-3.1686,-3.1688,-3.1702,-3.1692,-3.1703,-3.171,-3.1696,-3.1713,-3.171,-3.1715,-3.1715,-3.1728,-3.1711,-3.1723,-3.1725,-3.1728,-3.1733,-3.1646,-3.1729,-3.1728,-3.1728,-3.1728,-3.1728,0,-3.1755,-3.175,-3.1761,-3.1764,-3.1772,-3.175,-3.175,-3.1759,-3.1774,-3.1773,-3.1781,-3.1796,-3.1806,-3.1796,-3.1804,-3.1816,-3.1806,-3.1819,-3.1818,-3.1818,-3.1747,-3.174,-3.1827,-3.1827,-3.1827,-3.1827,-3.1827,-3.1827,-3.1804,-3.1831,-3.182,-3.1845,-3.184,-3.1856,-3.1858,-3.1859,-3.1858,-3.1876,-3.1884,-3.1876,-3.1871,-3.1879,-3.1887,-3.1884,-3.1888,-3.1905,-3.1898,-3.1832,-3.1823,-3.1813,-3.1806,-3.1906,-3.1906,-3.1967,-3.1967,-3.1968]}]]